Página principal
METAR-TAF:

METAR-TAF

Aeroportos :

Grayling Army Airfield

Grayling, Michigan, Estados Unidos

latitude: 44-40-49N, longitude: 084-43-44W, altura: 353 m

Observação actual do tempo

O boletim foi feito há 17 minutos, às 21:58 UTC
Vento 12 kt de nor-noroeste com rajadas de 18 kt
Temperatura 4°C
Humidade 75%
Pressão 1023 hPa
Visibilidade: 16.1 km
Nuvens dispersasa uma altura de 3200 ft

METAR: KGOV 232158Z AUTO 34012G18KT 10SM SCT032 04/00 A3022 RMK AO2 SLP249 T00410004 $

Hora: 18:15 (22:15 UTC)


TAF: em falta

Observações e previsões do tempo de mais de 4000 aeroportos (mensagens METAR e TAF).

As estações disponíveis são os pontos amarelos e vermelhos sobre o mapa.

Mova o rato sobre o mapa para ver o nome da estação.

Depois clique no ponto para visualizar as observações e previsões meteorológicas.

Para alterar o mapa : clique nos botões verdes com uma cruz preta para aumentar o zoom; no botão verde com uma pitada de zoom; ou nas setas verdes para mapas adjacentes.


METAR-TAF: